Location: *
(47.7167°N, 1.7333°W)
Time: 11:38:09
(UTC+00:00)

Cosmos 540 Rocket - Pass Details

Date: 09 April 2020
Orbit: 741 x 753 km, 74.1° (Epoch: 02 June)

Event Time Altitude Azimuth Distance (km) Brightness Sun altitude
Rises 21:26:27 0° 338° (NNW) 3,213 7.8 -23.8°
Reaches altitude 10° 21:28:50 10° 340° (NNW) 2,283 6.8 -24.1°
Maximum altitude 21:34:00 75° 66° (ENE) 780 3.4 -24.7°
Enters shadow 21:34:19 72° 101° (E) 790 3.3 -24.7°
